Location: Flynn Junction
(40.1314°N, 99.5162°W)
Time: 21:31:55
(UTC+00:00)

Cosmos 1703 - Pass Details

Date: 29 October 2020
Orbit: 525 x 538 km, 82.5° (Epoch: 30 November)

Event Time Altitude Azimuth Distance (km) Brightness Sun altitude
Rises 12:10:58 0° 177° (S) 2,643 7.0 -10.8°
Reaches altitude 10° 12:13:07 10° 172° (S) 1,760 6.1 -10.4°
Maximum altitude 12:16:54 56° 94° (E) 632 4.0 -9.7°
Drops below altitude 10° 12:20:44 10° 16° (NNE) 1,780 6.0 -9.0°
Sets 12:22:55 0° 13° (NNE) 2,677 6.9 -8.6°
